User: anonymous   Login
Location: Unspecified
(0.0000°N, 0.0000°E)
Time: 15:30:40
(UTC+00:00)
Language:

AEROCUBE 6A - Orbit

View from above orbital plane
View from above orbital plane
View from above satellite
View from above satellite

Ground track
Ground track

The orbit data is extracted from the following two-line orbital elements,

1 40045U 14033AM  18345.20466446  .00000359  00000-0  59184-4 0  9995
2 40045  97.8016 218.7638 0057917 343.1011  16.8268 14.75272299240626
Epoch (UTC): 11 December 2018 04:54:43
Eccentricity: 0.0057917
inclination: 97.8016°
perigee height: 603 km
apogee height: 685 km
right ascension of ascending node: 218.7638°
argument of perigee: 343.1011°
revolutions per day: 14.75272299
mean anomaly at epoch: 16.8268°
orbit number at epoch: 24062

The dashed part of the orbit path shows where the satellite is in the earth's shadow,  

DLR